This demonstration page uses our WeatherBlox Daily Observations layout. Learn more.

Left ArrowRight Arrow

40.92945, -100.16068

Hourly Observations for February 1, 2020

Temp ( °F °C ) Dew Point ( °F °C ) Humidity (%) Winds ( mph kmh ) Pressure ( in mb ) Visibility ( mi km ) Precip ( " mm )
12:15 am 00:15 Clear 30 -0.9 28 -2.2 91 91 N N/A 30.17 1022 10 16 N/A
12:35 am 00:35 Clear 30 -1 27 -2.9 87 87 N N/A 30.17 1022 10 16 N/A
12:55 am 00:55 Clear 29 -1.4 27 -2.7 91 91 N N/A 30.17 1022 10 16 N/A
1:15 am 01:15 Clear 29 -1.8 27 -2.7 94 94 N N/A 30.18 1022 10 16 N/A
1:35 am 01:35 Clear 30 -1.3 26 -3.6 85 85 W 5 7 30.16 1021 10 16 N/A
1:55 am 01:55 Clear 29 -1.5 25 -4 83 83 WSW 5 7 30.16 1021 10 16 N/A
2:15 am 02:15 Clear 29 -1.9 25 -4 86 86 W 5 7 30.17 1022 10 16 N/A
2:35 am 02:35 Clear 29 -1.6 25 -4.1 83 83 WNW 6 9 30.16 1021 10 16 N/A
2:55 am 02:55 Clear 29 -1.7 25 -4 85 85 NW 7 11 30.16 1021 10 16 N/A
3:15 am 03:15 Clear 30 -1.1 26 -3.1 86 86 WNW 10 17 30.15 1021 10 16 N/A
3:35 am 03:35 Clear 31 -0.6 28 -2.5 87 87 WNW 10 17 30.14 1021 10 16 N/A
3:55 am 03:55 Clear 31 -0.7 28 -2.5 88 88 WNW 12 19 30.13 1020 10 16 N/A
4:15 am 04:15 Clear 30 -1 27 -2.6 89 89 WNW 10 17 30.14 1021 10 16 N/A
4:35 am 04:35 Clear 30 -1.2 27 -2.6 90 90 WNW 9 15 30.13 1020 10 16 N/A
4:55 am 04:55 Clear 29 -1.6 27 -2.7 92 92 W 7 11 30.13 1020 10 16 N/A
5:15 am 05:15 Clear 29 -1.6 27 -2.9 91 91 WNW 7 11 30.13 1020 10 16 N/A
5:35 am 05:35 Clear 29 -1.6 27 -2.8 92 92 WNW 6 9 30.13 1020 10 16 N/A
5:55 am 05:55 Clear 28 -2.3 26 -3.3 93 93 NW 7 11 30.14 1021 10 16 N/A
6:15 am 06:15 Clear 28 -2.5 26 -3.4 94 94 NW 5 7 30.13 1020 10 16 N/A
6:35 am 06:35 Clear 28 -2.5 26 -3.5 93 93 NW 5 7 30.12 1020 10 16 N/A
6:55 am 06:55 Clear 27 -2.6 26 -3.5 94 94 NW 5 7 30.13 1020 10 16 N/A
7:15 am 07:15 Clear 28 -2.5 26 -3.5 93 93 WNW 3 6 30.13 1020 10 16 N/A
7:35 am 07:35 Clear 28 -2.3 26 -3.3 93 93 W 6 9 30.11 1020 10 16 N/A
7:55 am 07:55 Sunny 28 -2 27 -3 93 93 WNW 7 11 30.12 1020 10 16 N/A
8:15 am 08:15 Sunny 30 -1.2 27 -2.8 89 89 NW 6 9 30.10 1019 10 16 N/A
8:35 am 08:35 Sunny 31 -0.3 28 -2.4 86 86 WNW 6 9 30.09 1019 10 16 N/A
8:55 am 08:55 Sunny 32 0.1 29 -1.6 88 88 WNW 6 9 30.09 1019 10 16 N/A
9:15 am 09:15 Sunny 35 1.4 30 -0.9 85 85 WNW 7 11 30.07 1018 10 16 N/A
9:35 am 09:35 Sunny 36 2.1 31 -0.6 83 83 WNW 9 15 30.06 1018 10 16 N/A
9:55 am 09:55 Sunny 38 3.6 32 undefined 78 78 WNW 8 13 30.03 1017 10 16 N/A
10:15 am 10:15 Sunny 41 4.9 33 0.3 72 72 WNW 7 11 30.01 1016 10 16 N/A
10:35 am 10:35 Sunny 44 6.8 34 1.3 68 68 WNW 8 13 29.99 1016 10 16 N/A
10:55 am 10:55 Sunny 47 8.4 35 1.8 63 63 WNW 9 15 29.99 1015 10 16 N/A
11:15 am 11:15 Sunny 47 8.5 35 1.9 64 64 NW 9 15 29.99 1015 10 16 N/A
11:35 am 11:35 Sunny 49 9.2 35 1.8 60 60 WNW 12 19 29.98 1015 10 16 N/A
11:55 am 11:55 Sunny 50 9.9 36 2.2 59 59 WNW 12 19 29.96 1015 10 16 N/A
12:15 pm 12:15 Sunny 52 11.3 36 2.1 53 53 WNW 15 24 29.94 1014 10 16 N/A
12:35 pm 12:35 Sunny 54 12.2 36 2 50 50 W 13 20 29.91 1013 10 16 N/A
12:55 pm 12:55 Sunny 55 12.7 36 2.3 49 49 W 12 19 29.90 1012 10 16 N/A
1:15 pm 13:15 Sunny 55 13 36 2.2 48 48 W 15 24 29.87 1012 10 16 N/A
1:35 pm 13:35 Sunny 57 13.7 36 2.4 47 47 WNW 17 28 29.87 1011 10 16 N/A
1:55 pm 13:55 Sunny 57 14.1 36 2.2 45 45 WNW 14 22 29.86 1011 10 16 N/A
2:15 pm 14:15 Sunny 58 14.4 36 2.4 45 45 W 17 28 29.85 1011 10 16 N/A
2:35 pm 14:35 Sunny 58 14.2 37 2.5 45 45 W 16 26 29.84 1011 10 16 N/A
2:55 pm 14:55 Sunny 59 14.8 37 2.8 45 45 W 15 24 29.84 1010 10 16 N/A
3:15 pm 15:15 Sunny 59 15.1 38 3.6 46 46 W 12 19 29.83 1010 10 16 N/A
3:35 pm 15:35 Sunny 59 15 38 3.1 45 45 W 13 20 29.82 1010 10 16 N/A
3:55 pm 15:55 Sunny 59 15.1 39 4 48 48 W 10 17 29.83 1010 10 16 N/A
4:15 pm 16:15 Sunny 57 13.9 39 3.9 51 51 W 10 17 29.84 1010 10 16 N/A
4:35 pm 16:35 Sunny 56 13.4 38 3.6 52 52 WSW 7 11 29.83 1010 10 16 N/A
4:55 pm 16:55 Sunny 55 12.5 38 3.3 54 54 W 7 11 29.85 1011 10 16 N/A
7:15 pm 19:15 Clear 46 7.5 33 0.5 62 62 W 10 17 29.91 1013 10 16 N/A
8:35 pm 20:35 Clear 44 6.5 32 -0.2 63 63 W 12 19 29.91 1013 10 16 N/A
8:55 pm 20:55 Clear 44 6.5 32 -0.2 63 63 W 12 19 29.91 1013 10 16 N/A
9:15 pm 21:15 Clear 40 4.5 31 -0.3 71 71 W 6 9 29.93 1014 10 16 N/A
9:35 pm 21:35 Clear 41 5.1 31 -0.6 67 67 W 9 15 29.92 1013 10 16 N/A
9:55 pm 21:55 Clear 42 5.4 31 -0.7 65 65 W 12 19 29.90 1013 10 16 N/A
10:15 pm 22:15 Clear 42 5.3 31 -0.5 67 67 W 12 19 29.91 1013 10 16 N/A
10:35 pm 22:35 Clear 41 5.2 31 -0.6 67 67 W 10 17 29.91 1013 10 16 N/A
10:55 pm 22:55 Clear 40 4.3 31 -0.8 70 70 W 7 11 29.90 1013 10 16 N/A
11:15 pm 23:15 Clear 41 5 31 -0.7 67 67 WNW 10 17 29.91 1013 10 16 N/A
11:35 pm 23:35 Clear 43 6 31 -0.8 62 62 WNW 12 19 29.89 1012 10 16 N/A
11:55 pm 23:55 Clear 46 7.5 30 -1 55 55 WNW 14 22 29.87 1012 10 16 N/A

Powered by AerisWeather